DW6826 Charleston SC US current weather conditions

sailwx.info

Wind from 168

Air temperature 25.0° C
Dewpoint 24.3° C

Last reported at 2020-Aug-08 11:04 UTC.
Time now 2020-Aug-08 11:50 UTC

Location: N 32°47' W 079°59'.
View on Google Maps.

See reports from other nearby stations

  
Tides and Currents Weather Stations Pressure Air Temp Water Temp Dewpoint Dewpoint Depression Visibility Wind Speed Wind Dir Waves Ship Positions
date/time (UTC)wind fromknots sea level pressurealtimeterstation pressurevisibilityair tempwater tempwave heightnotes
2020-Aug-08 11:04 168 25.0
2020-Aug-08 10:49 168 25.0
2020-Aug-08 10:33 168 25.0
2020-Aug-08 10:18 168 25.0
2020-Aug-08 10:03 168 25.0
2020-Aug-08 09:49 168 25.0
2020-Aug-08 09:34 168 25.0
2020-Aug-08 09:19 168 25.0
2020-Aug-08 09:04 168 25.0
2020-Aug-08 08:48 168 25.0
2020-Aug-08 08:33 168 25.0
2020-Aug-08 08:18 168 25.0
2020-Aug-08 07:48 168 25.0
2020-Aug-08 07:33 168 25.0
2020-Aug-08 07:18 168 25.0
2020-Aug-08 07:03 168 25.0
2020-Aug-08 06:49 168 25.6
2020-Aug-08 06:35 168 25.6
2020-Aug-08 06:19 168 25.6
2020-Aug-08 06:03 168 25.6
2020-Aug-08 05:49 178 26.1
2020-Aug-08 05:33 178 26.1
2020-Aug-08 05:18 178 26.1
2020-Aug-08 05:03 178 26.1
2020-Aug-08 04:49 178 26.1
2020-Aug-08 04:33 178 26.1
2020-Aug-08 04:18 178 26.1
2020-Aug-08 04:04 176 26.7
2020-Aug-08 03:48 178 26.7
2020-Aug-08 03:33 178 26.7
2020-Aug-08 03:18 178 26.7
2020-Aug-08 03:04 176 26.7
2020-Aug-08 02:48 178 26.7
2020-Aug-08 02:19 176 27.2
2020-Aug-08 02:04 178 27.2
2020-Aug-08 01:48 176 27.2
2020-Aug-08 01:34 176 27.2
2020-Aug-08 01:19 178 27.8
2020-Aug-08 00:34 178 28.9
2020-Aug-08 00:19 175 28.9
2020-Aug-08 00:03 138 28.9
2020-Aug-07 23:49 203 28.9
2020-Aug-07 23:34 048 29.4
2020-Aug-07 23:18 171 29.4
2020-Aug-07 23:03 275 0 29.4
2020-Aug-07 22:49 289 29.4
2020-Aug-07 22:33 288 30.0
2020-Aug-07 22:18 316 30.0
2020-Aug-07 22:04 004 30.0
2020-Aug-07 21:48 144 30.6
2020-Aug-07 21:33 204 0 30.6
2020-Aug-07 21:18 286 0 30.6
2020-Aug-07 20:48 039 0 31.1
2020-Aug-07 20:33 241 0 31.1
2020-Aug-07 20:19 251 31.7
2020-Aug-07 20:04 207 0 31.7
2020-Aug-07 19:49 060 0 31.7
2020-Aug-07 19:34 059 0 31.7
2020-Aug-07 19:18 151 0 32.2
2020-Aug-07 19:04 090 32.2
2020-Aug-07 18:48 154 32.2
2020-Aug-07 18:34 063 0 31.7
2020-Aug-07 18:19 025 0 31.7
2020-Aug-07 18:04 056 0 32.2
2020-Aug-07 17:48 141 1 32.8
2020-Aug-07 17:34 104 0 32.2
2020-Aug-07 17:04 059 1 31.7
2020-Aug-07 16:48 076 1 31.7
2020-Aug-07 16:34 120 1 31.1
2020-Aug-07 16:19 104 1 31.7
2020-Aug-07 16:03 048 1 31.7
2020-Aug-07 15:49 132 0 31.7
2020-Aug-07 15:34 069 0 31.7
2020-Aug-07 15:19 045 1 31.7
2020-Aug-07 15:04 028 1 31.7
2020-Aug-07 14:48 065 31.7
2020-Aug-07 14:34 124 31.1
2020-Aug-07 14:19 158 0 31.1
2020-Aug-07 14:03 100 30.6
2020-Aug-07 13:48 100 30.0
2020-Aug-07 13:19 094 0 28.3
2020-Aug-07 13:04 094 27.8
2020-Aug-07 12:49 233 27.2
2020-Aug-07 12:34 233 26.7
2020-Aug-07 12:18 233 26.1
2020-Aug-07 12:03 233 25.6
2020-Aug-07 11:49 233 25.6
2020-Aug-07 11:34 209 25.6
2020-Aug-07 11:18 197 25.6
2020-Aug-07 11:04 197 25.6
2020-Aug-07 10:49 197 25.6
2020-Aug-07 10:19 197 25.6
2020-Aug-07 10:04 197 25.6
2020-Aug-07 09:48 197 25.6
2020-Aug-07 09:33 197 26.1
2020-Aug-07 09:19 197 26.1
2020-Aug-07 09:03 197 26.1
2020-Aug-07 08:49 197 26.1
2020-Aug-07 08:34 197 26.7
2020-Aug-07 08:18 197 26.7
2020-Aug-07 07:49 197 26.7
2020-Aug-07 07:18 197 27.2
2020-Aug-07 07:03 197 27.2
2020-Aug-07 06:49 197 27.2
2020-Aug-07 06:34 197 27.2
2020-Aug-07 06:18 197 27.2
2020-Aug-07 06:03 197 27.8
2020-Aug-07 05:48 197 27.8
2020-Aug-07 05:33 121 27.8
2020-Aug-07 05:18 120 27.8
2020-Aug-07 05:03 120 27.8
2020-Aug-07 04:48 120 27.8
2020-Aug-07 04:33 159 27.8
2020-Aug-07 04:18 168 27.8
2020-Aug-07 04:03 168 27.8
2020-Aug-07 03:48 187 27.8
2020-Aug-07 03:33 187 27.8
2020-Aug-07 03:19 065 27.8
2020-Aug-07 03:03 165 27.8
2020-Aug-07 02:49 115 27.8
2020-Aug-07 02:33 269 27.8
2020-Aug-07 02:04 093 27.8
2020-Aug-07 01:48 093 27.8
2020-Aug-07 01:34 099 27.8
2020-Aug-07 01:19 091 27.8
2020-Aug-07 01:03 125 27.8
2020-Aug-07 00:48 125 27.8
2020-Aug-07 00:34 128 27.8
2020-Aug-07 00:18 043 27.8
2020-Aug-07 00:04 079 27.8
2020-Aug-06 23:49 189 27.8
2020-Aug-06 23:19 165 27.8
2020-Aug-06 23:04 145 27.8
2020-Aug-06 22:48 152 28.3
2020-Aug-06 22:33 145 28.3
2020-Aug-06 22:18 032 28.3
2020-Aug-06 22:03 060 28.3
2020-Aug-06 21:49 060 0 28.9
2020-Aug-06 21:34 017 0 28.3
2020-Aug-06 21:19 024 28.3
2020-Aug-06 21:04 062 27.8
2020-Aug-06 20:48 056 27.8
2020-Aug-06 20:34 115 27.8
2020-Aug-06 20:19 048 28.9
2020-Aug-06 20:03 211 0 30.6
2020-Aug-06 19:49 075 0 31.1
2020-Aug-06 19:34 152 0 31.1
2020-Aug-06 19:19 063 0 31.1
2020-Aug-06 19:03 281 0 31.1
2020-Aug-06 18:48 267 0 31.1
2020-Aug-06 18:33 062 0 31.1
2020-Aug-06 18:19 082 31.1
2020-Aug-06 18:03 038 0 30.6
2020-Aug-06 17:49 173 0 30.6
2020-Aug-06 17:34 072 0 29.4
2020-Aug-06 17:19 049 0 27.8
2020-Aug-06 17:03 093 0 26.7
2020-Aug-06 16:48 052 25.6
2020-Aug-06 16:34 052 25.6
2020-Aug-06 16:18 313 0 27.2
2020-Aug-06 16:03 139 28.3
2020-Aug-06 15:49 339 27.2
2020-Aug-06 15:34 075 26.1
2020-Aug-06 15:19 075 0 26.1
2020-Aug-06 15:04 331 0 27.2
2020-Aug-06 14:48 331 0 30.0
2020-Aug-06 14:34 317 31.7
2020-Aug-06 14:19 209 31.1
2020-Aug-06 14:03 130 31.1
2020-Aug-06 13:49 179 30.6
2020-Aug-06 13:34 113 30.0
2020-Aug-06 13:19 276 30.0
2020-Aug-06 13:04 276 30.0
2020-Aug-06 12:49 099 29.4
2020-Aug-06 12:34 079 28.9
2020-Aug-06 12:18 082 27.8
2020-Aug-06 12:04 082 27.2
2020-Aug-06 11:33 072 26.1
2020-Aug-06 11:18 072 26.1
2020-Aug-06 11:03 072 26.1